Theta_e
303 303 304 304 304 304 305 305 305 304 303 297 295 295 289 288 289 299 300 301 304 291 284 286 288 287 287 291 292 293 294 291 291 291 291 290 290 289 288 287 286 287 287 286 285 286 285 287 285 288 289 291 292 291 291 292 293 288 286 287 288 302 280 280 280 282 284 288 287 288 286 283 284 283 281 281 282 283 277 275 277 277 276 276 274 273 276
303 303 303 303 304 304 305 305 305 304 303 298 295 288 287 289 289 294 300 301 299 289 283 283 281 284 290 290 291 293 294 292 290 290 289 288 287 287 287 289 289 288 289 287 286 288 282 288 288 288 290 290 293 292 291 292 292 293 289 286 291 284 282 282 277 274 278 281 284 282 282 283 280 282 281 281 281 280 279 279 277 276 278 276 276 271 274
303 303 303 303 304 304 304 305 305 304 304 302 291 289 289 289 291 292 296 299 299 289 287 285 279 283 285 287 287 288 290 290 291 290 288 290 287 287 286 288 288 287 289 289 289 288 285 284 289 290 289 291 293 291 293 295 292 298 297 301 292 285 282 279 273 272 269 270 270 271 275 282 280 281 280 282 281 280 281 280 274 274 277 278 272 268 276
303 303 303 303 304 304 304 304 304 304 303 302 291 290 289 286 280 286 289 291 291 292 295 290 286 282 284 280 285 287 285 290 291 290 289 289 289 286 286 286 287 286 286 285 286 286 288 285 285 285 285 288 291 290 290 296 300 304 305 299 291 282 284 282 279 279 278 278 278 281 282 281 279 282 280 281 280 280 280 277 272 273 275 275 276 280 281
303 303 303 303 303 304 304 304 304 303 303 303 288 287 289 287 283 280 281 288 291 289 290 288 288 283 287 280 286 283 285 287 289 291 287 290 288 287 286 285 284 283 284 282 283 285 285 286 284 283 284 286 289 291 290 289 296 304 300 298 285 281 280 283 283 282 281 282 282 284 284 281 280 281 283 282 280 279 278 276 279 278 280 274 280 280 281
302 302 302 303 303 304 304 304 304 302 302 304 292 286 286 282 282 286 288 284 282 285 286 288 287 288 288 284 287 285 284 285 283 288 290 290 289 284 285 285 284 283 285 283 279 281 283 284 282 285 285 284 286 286 289 288 293 296 290 293 289 284 280 284 284 283 284 284 284 285 284 282 281 281 281 282 281 282 280 279 279 278 273 275 279 279 279
302 302 302 303 303 303 303 304 303 302 301 301 290 286 284 285 284 286 289 283 287 289 288 291 289 287 289 284 286 284 284 284 286 286 286 287 287 285 278 282 283 283 284 282 280 281 278 279 283 283 283 283 283 283 285 288 289 289 289 289 287 285 281 284 285 283 284 284 285 287 285 283 282 282 281 280 281 280 281 280 278 279 279 279 280 280 279
302 302 302 302 303 303 304 304 304 302 301 298 293 288 283 283 282 282 286 286 287 289 291 289 289 285 289 283 285 285 284 284 285 287 285 280 284 287 282 282 283 284 285 284 281 283 284 284 279 283 283 280 284 282 284 284 288 288 287 289 289 286 280 288 284 281 282 284 285 286 285 284 283 283 283 282 282 282 280 280 280 281 280 279 281 280 279
301 302 302 302 303 303 304 304 304 302 300 292 289 287 289 286 286 287 283 281 284 288 289 287 286 285 286 284 285 286 285 285 287 284 287 284 283 285 283 284 283 284 284 284 284 285 286 286 286 285 285 280 286 283 283 285 284 285 285 287 287 285 280 283 281 278 278 282 282 283 284 284 283 282 283 282 281 280 280 278 281 278 279 279 280 278 275
301 301 302 302 302 303 304 304 304 302 300 290 286 286 290 288 288 286 280 277 284 280 285 289 287 283 285 286 286 285 285 286 287 281 286 287 287 286 286 285 283 282 283 283 284 286 287 287 287 287 287 288 287 286 286 285 284 283 283 285 283 282 282 279 277 277 275 280 281 282 282 282 280 279 281 282 281 282 281 282 283 281 281 279 277 278 279
301 301 301 302 302 303 303 304 304 303 297 290 288 286 288 287 285 285 280 279 279 280 280 283 284 285 287 288 286 288 286 287 287 282 281 286 286 288 286 285 282 280 282 285 288 287 288 289 289 288 287 287 287 286 286 286 284 284 285 282 282 282 283 278 279 274 274 279 278 280 277 270 270 280 283 284 281 281 280 279 280 281 282 279 280 281 282
300 301 301 301 302 303 303 304 304 304 301 292 289 288 290 289 284 280 273 278 277 279 280 280 282 286 286 287 287 286 285 285 286 288 284 285 286 287 286 285 282 279 286 288 288 288 289 289 289 288 289 287 287 289 288 286 286 286 283 285 280 278 277 276 275 270 273 275 277 274 269 270 280 283 283 284 283 282 280 280 281 281 282 283 282 282 283
300 300 300 301 302 302 303 304 304 304 303 295 290 289 291 291 286 280 278 278 276 278 275 280 284 286 286 286 286 286 287 288 288 289 288 286 285 286 286 284 283 285 289 287 287 285 284 282 282 282 283 283 284 286 286 286 286 287 285 283 281 277 276 276 273 270 271 270 269 267 267 278 281 282 283 285 285 282 282 281 281 281 281 281 280 282 282
300 300 300 301 301 302 303 303 304 304 304 300 291 290 291 290 287 283 277 274 277 279 279 277 280 282 283 284 285 286 286 285 285 285 284 286 284 285 287 288 288 290 289 286 284 282 281 277 275 278 281 279 281 282 286 284 284 285 285 285 285 283 280 276 273 276 273 268 263 267 278 278 281 279 281 280 280 280 277 273 278 281 280 280 279 280 281
300 300 300 301 301 302 302 303 304 304 304 302 290 289 291 292 287 285 283 279 278 281 279 275 278 280 281 283 283 283 283 282 283 282 284 285 285 287 287 289 291 289 288 286 282 281 278 276 275 274 276 274 271 275 281 281 283 284 284 285 284 282 282 278 278 273 269 269 266 266 264 265 274 278 280 283 283 282 281 276 276 280 279 281 280 279 280
300 300 300 301 301 302 302 303 304 304 304 302 291 288 290 291 288 286 283 277 274 275 280 282 282 280 280 280 282 282 280 277 280 279 280 282 283 286 288 289 290 290 288 284 281 279 278 277 272 267 271 272 276 276 275 279 278 282 281 283 284 282 281 279 280 273 270 268 266 264 265 266 271 279 280 282 282 282 279 276 275 279 279 280 280 280 280
301 300 300 301 301 302 302 303 303 304 304 302 292 287 290 292 290 287 282 280 280 277 279 282 283 281 277 276 280 278 280 278 280 276 276 279 281 282 285 288 287 287 285 280 280 278 277 275 277 275 277 279 274 274 277 277 275 275 281 280 280 280 276 273 274 270 271 268 267 267 263 270 278 278 280 282 282 282 279 270 267 278 280 280 279 279 279
300 300 300 301 301 302 303 303 304 304 304 304 294 288 289 292 291 288 284 278 275 279 282 284 283 279 280 280 279 281 280 279 279 277 277 279 279 280 283 285 284 285 285 278 277 273 273 271 271 271 271 279 280 276 270 276 272 273 275 276 275 272 273 274 271 268 271 272 269 272 272 277 280 281 282 282 283 281 272 268 271 280 280 281 280 280 281
300 300 300 301 301 302 302 303 304 304 304 303 295 287 287 291 293 288 284 281 279 278 283 284 286 284 285 285 283 282 283 282 280 275 275 275 280 283 283 283 284 279 282 274 276 273 270 272 276 276 272 275 278 272 278 272 272 276 276 273 273 271 269 272 271 271 268 266 270 272 271 276 280 280 282 282 281 272 268 274 279 280 281 281 281 281 282
300 300 300 300 301 301 302 303 304 304 304 304 295 286 289 289 292 290 286 280 277 281 282 285 285 284 285 284 282 281 282 281 278 278 275 274 280 280 276 275 279 280 278 277 271 275 269 271 273 275 270 274 277 280 272 275 277 276 276 277 271 274 269 271 270 271 268 265 266 269 268 276 282 282 280 281 274 273 280 282 283 283 281 281 282 282 283
300 300 300 300 301 301 302 303 303 304 304 304 298 287 287 288 292 292 287 282 277 276 280 285 287 286 285 284 285 285 283 282 281 280 281 279 281 275 269 271 277 276 275 274 271 272 273 270 274 273 276 275 276 275 271 268 274 280 278 278 276 279 271 272 271 276 268 267 267 268 274 277 283 280 274 280 283 285 286 285 283 286 285 284 284 284 285
300 300 300 300 301 301 302 303 303 304 304 304 300 287 286 289 291 293 292 287 280 281 283 286 288 286 287 288 287 286 289 287 288 286 282 279 281 279 278 278 281 279 281 277 274 272 277 274 276 269 270 272 276 270 272 262 267 275 276 277 269 279 275 274 271 278 274 273 276 280 283 283 285 285 285 285 288 289 290 289 287 286 287 288 286 287 287
299 299 300 300 301 301 302 302 303 303 304 304 298 288 286 289 291 293 285 284 283 286 285 282 282 285 288 290 289 288 287 287 288 284 280 278 278 279 280 279 280 283 282 279 280 277 277 274 272 276 273 275 271 269 274 270 267 274 270 277 276 280 278 278 278 277 282 283 283 285 284 284 284 287 288 288 288 288 289 288 285 286 286 285 285 286 285
299 299 300 300 300 301 302 302 303 303 303 304 300 287 287 288 290 290 287 284 281 282 282 283 281 278 280 284 288 289 289 289 291 288 286 283 276 277 278 280 283 280 278 281 278 281 276 273 278 276 271 276 274 266 264 269 269 277 272 273 276 277 278 276 274 278 273 270 280 280 281 282 283 284 285 285 286 285 285 284 284 285 284 284 284 284 284
299 299 299 300 300 301 301 302 303 303 303 303 299 293 290 288 288 289 285 281 282 276 276 277 276 286 288 288 288 286 286 290 292 287 286 285 282 279 280 285 284 283 282 283 279 277 273 274 277 269 269 278 276 269 274 268 272 275 267 272 275 276 278 276 275 273 267 269 278 279 280 280 281 280 282 283 283 284 284 284 284 284 284 284 284 283 283
299 299 299 299 300 301 301 302 302 302 303 303 299 288 286 286 289 288 288 286 279 275 277 276 279 285 286 287 287 288 288 287 287 290 289 287 285 285 284 285 284 283 281 280 277 275 273 271 269 272 271 274 277 271 273 276 275 276 273 273 277 277 280 269 276 275 277 278 279 279 280 280 280 281 281 281 281 281 282 281 281 281 281 280 281 281 280
299 299 299 300 300 301 301 302 302 302 302 302 295 287 288 288 287 290 288 287 284 278 275 275 276 282 287 285 288 287 286 286 286 286 286 286 286 284 283 281 281 280 280 279 278 274 274 272 270 275 276 277 278 277 276 275 276 271 272 277 278 277 274 276 274 271 269 272 277 279 273 270 278 279 280 282 282 281 281 281 282 281 281 280 280 280 279
298 299 299 299 300 301 301 302 302 302 302 301 293 289 287 287 289 289 286 286 286 277 276 273 276 284 285 285 287 285 287 287 285 286 284 285 284 283 281 281 280 281 279 279 277 276 272 273 277 273 272 276 275 273 277 276 275 274 275 277 278 277 276 273 263 265 269 274 278 279 276 276 276 280 282 281 281 281 281 281 280 281 280 279 279 279 279
299 299 299 300 301 301 302 302 302 302 302 299 285 287 287 289 288 292 292 289 285 281 276 280 280 280 277 282 289 285 285 286 286 284 284 283 284 283 282 282 280 278 279 277 274 273 274 275 273 277 278 278 275 272 273 269 264 269 273 277 277 279 278 277 277 275 278 277 277 279 279 279 281 280 280 282 280 281 281 281 280 280 280 279 278 280 280
299 299 300 300 301 302 302 302 302 302 302 289 283 279 279 287 285 290 293 293 286 283 278 275 275 279 282 286 285 284 285 286 284 285 284 283 282 282 281 281 282 284 281 278 276 275 275 276 274 276 278 281 275 268 264 269 267 273 277 278 279 279 280 280 278 280 280 281 278 279 279 279 279 280 281 281 283 282 281 280 280 280 280 279 279 279 279
299 300 300 301 301 302 302 302 302 302 300 283 279 276 274 275 285 289 296 292 287 284 278 277 278 279 278 284 284 285 284 286 284 283 284 283 282 282 283 282 281 283 279 278 277 275 275 273 273 277 279 283 274 266 270 268 269 274 277 277 280 280 280 281 279 279 281 280 280 280 280 280 281 281 280 280 281 283 283 283 283 285 282 282 279 279 279
300 300 300 301 301 302 302 302 302 301 295 290 285 283 282 284 287 288 297 295 290 288 280 275 274 274 274 279 282 286 286 285 284 282 281 284 284 282 280 281 281 281 284 274 276 276 276 272 273 276 279 282 276 264 273 267 265 271 276 279 279 279 279 279 281 281 280 280 281 281 280 281 280 280 279 281 280 280 282 283 283 282 286 282 280 280 279
300 300 301 301 301 302 302 303 303 300 295 294 298 300 300 301 301 300 300 290 285 280 278 273 273 275 274 280 283 285 286 281 280 280 282 282 284 280 279 281 279 281 288 280 275 276 275 271 272 274 279 278 271 270 270 266 272 276 277 281 279 279 279 280 281 280 280 279 280 279 276 278 280 280 281 281 281 281 281 281 280 279 278 279 279 280 280
300 300 300 301 301 302 303 303 302 301 294 288 287 289 293 299 297 297 288 285 284 282 277 276 274 275 274 278 281 283 284 283 279 278 278 282 281 280 278 280 280 279 276 278 277 276 276 276 274 272 276 274 272 269 269 272 275 275 276 278 279 279 280 281 280 281 281 281 280 280 279 279 280 281 281 282 282 284 282 279 279 279 278 279 279 279 279
300 300 300 301 301 302 301 299 288 290 285 287 285 285 287 300 301 299 292 285 278 275 275 277 275 271 271 270 266 274 282 283 279 279 278 278 281 281 280 276 274 275 277 280 272 271 272 274 275 273 270 272 272 270 267 273 275 276 278 279 278 279 280 281 281 280 279 280 280 280 280 281 281 280 281 282 282 281 279 280 279 279 279 279 278 278 279
300 300 300 300 301 299 291 294 289 285 283 284 287 295 300 302 299 289 288 288 285 273 270 272 273 273 269 270 270 277 284 283 280 279 278 277 279 279 277 275 273 275 279 273 272 274 272 279 276 270 265 270 267 269 273 276 276 277 278 280 280 282 281 281 279 279 279 279 279 279 280 280 281 281 282 282 281 279 278 279 278 277 277 277 278 279 278
299 299 299 298 290 291 284 285 289 289 287 290 295 300 301 299 293 291 289 287 289 286 279 270 273 274 275 271 270 274 279 274 277 276 276 277 276 273 274 272 270 277 275 270 268 272 274 279 269 268 269 266 267 274 276 277 277 278 278 280 281 281 280 279 280 281 279 280 280 280 279 279 280 281 281 281 279 279 280 279 277 277 277 277 278 278 278
298 297 287 285 284 281 282 283 285 291 298 298 300 290 287 286 280 280 282 280 284 288 277 278 273 275 277 276 274 278 278 274 278 276 272 273 274 274 273 273 273 276 268 267 270 277 271 266 270 269 265 273 275 276 276 277 278 278 280 281 281 281 279 279 281 280 279 279 279 280 280 280 280 280 280 279 279 279 278 278 278 279 279 280 280 279 279
293 286 283 281 281 279 281 285 292 298 295 292 287 284 282 279 278 278 277 278 278 279 276 277 276 277 277 277 276 281 282 277 271 273 273 276 274 270 272 270 273 271 266 266 270 277 271 265 262 264 265 269 274 276 277 277 277 279 281 281 281 280 281 280 282 282 281 280 281 281 281 281 280 281 280 279 278 279 277 278 279 280 281 281 280 279 278
286 285 280 278 279 281 288 292 297 292 288 283 278 278 278 278 277 276 276 275 276 275 276 276 277 278 279 279 276 275 282 279 274 271 269 272 280 273 273 271 271 271 265 263 268 274 271 267 263 264 264 266 272 276 277 278 279 279 279 280 279 280 280 282 282 280 281 281 280 280 281 282 282 281 281 280 280 279 280 279 280 280 280 281 280 279 278
288 286 282 278 284 287 290 293 289 282 280 277 276 275 274 276 277 276 276 270 271 273 277 277 278 279 280 278 279 275 281 282 278 277 275 274 276 277 270 269 272 270 265 263 268 269 264 264 260 264 267 267 275 276 277 279 280 281 279 279 280 280 280 280 281 280 280 281 282 282 281 280 280 280 280 281 281 280 278 278 279 280 280 280 279 279 280
288 287 288 291 293 294 293 286 279 280 278 278 274 272 273 274 275 273 273 272 272 269 276 279 275 276 278 279 279 278 279 282 276 274 273 272 277 273 268 269 269 266 264 265 267 265 266 266 261 261 263 272 274 275 277 279 279 280 280 279 280 280 280 280 281 280 280 282 282 281 280 280 280 280 280 280 280 281 280 278 279 279 280 280 280 281 282
297 297 295 291 289 285 282 279 279 275 272 271 268 270 270 271 273 273 273 273 271 277 277 282 280 281 283 281 280 282 280 282 282 278 276 271 274 272 267 265 265 266 266 267 266 262 264 263 261 269 273 276 276 276 277 278 279 278 279 280 280 281 281 281 281 281 281 282 282 282 281 280 280 280 280 280 280 280 279 279 280 280 280 280 280 280 280
292 292 287 282 281 278 279 275 280 278 273 270 268 268 268 268 271 269 271 272 275 276 278 280 279 278 275 279 280 280 281 284 282 276 275 274 272 270 267 267 265 267 271 264 263 267 265 260 265 272 275 276 278 277 277 278 276 277 280 280 279 279 279 280 280 280 281 281 281 281 280 280 280 280 279 279 279 281 281 280 280 280 279 279 280 281 280
282 278 276 274 274 277 276 270 274 272 269 271 271 267 268 268 268 267 273 274 279 280 280 279 279 280 279 282 283 283 281 277 278 276 274 275 271 267 268 267 264 266 267 264 261 260 264 265 268 272 275 275 277 276 277 276 277 280 280 280 280 280 279 280 280 280 280 281 282 280 280 280 280 280 279 279 279 279 279 281 281 279 278 279 278 278 278
279 278 276 272 271 274 271 268 269 270 272 272 271 273 273 274 276 277 278 280 280 280 281 280 280 281 280 281 279 278 276 275 276 276 274 270 269 268 268 269 269 268 264 259 261 264 265 269 270 274 275 276 277 275 276 278 278 279 281 282 282 281 280 280 280 280 281 281 280 280 280 279 280 279 280 280 278 279 279 280 279 279 279 279 278 278 278
279 279 275 273 270 272 274 270 271 271 276 277 277 276 278 278 278 279 280 280 279 280 281 280 280 281 278 277 278 277 277 277 276 277 274 271 271 273 274 270 266 262 263 261 260 257 261 269 270 272 274 275 276 275 276 277 278 279 281 281 280 281 281 280 280 281 281 280 279 280 280 280 280 280 280 280 280 280 280 279 279 278 278 279 278 278 278
278 280 275 271 270 271 273 272 275 276 277 278 278 277 277 279 279 279 279 279 280 280 280 280 277 276 277 278 279 275 273 274 275 274 276 275 276 271 266 266 263 262 262 264 265 264 267 271 273 275 276 275 275 277 277 278 278 279 280 281 281 281 281 281 280 280 280 281 281 281 281 280 280 280 280 281 280 281 280 280 280 278 278 278 279 278 278
280 277 274 270 271 273 272 273 278 277 278 277 277 278 279 280 279 279 280 279 280 281 280 280 276 277 276 277 275 275 275 277 273 273 278 274 272 268 267 264 262 264 266 270 274 273 272 275 275 274 276 277 277 278 278 279 279 279 280 281 282 282 282 282 282 282 280 281 281 281 281 281 280 280 280 279 279 281 281 280 279 278 278 279 279 278 278
279 276 277 274 274 273 274 276 278 275 276 277 279 278 277 277 278 282 283 282 281 279 280 283 281 280 278 279 275 275 274 274 275 275 271 269 268 268 267 265 263 266 267 273 274 276 276 275 274 275 277 276 278 278 278 279 278 279 279 280 281 281 282 282 282 281 281 281 281 282 282 281 281 281 281 281 281 280 280 279 278 278 278 278 279 278 278
283 280 277 275 276 272 275 273 270 270 273 276 277 276 277 279 279 280 281 282 282 277 275 276 277 278 277 276 274 272 274 277 274 271 268 268 268 268 267 267 269 270 275 278 278 277 278 278 276 277 278 278 279 279 279 279 279 279 279 278 279 281 281 281 282 281 281 282 281 281 281 282 283 283 282 281 280 280 280 279 278 278 279 279 278 279 278
282 277 276 276 279 280 280 279 276 278 279 279 279 279 279 280 279 281 283 283 281 278 275 276 278 277 275 274 276 277 279 276 274 271 270 271 271 270 268 271 277 278 277 277 278 279 280 281 282 281 282 282 283 282 280 280 280 280 280 280 280 280 281 282 282 282 282 282 282 282 283 283 282 282 281 281 280 280 280 281 279 278 279 279 279 279 279
Wind_Speed
28 29 28 28 28 30 32 31 30 27 26 10 7 4 4 5 1 5 6 8 1 4 2 2 0 1 2 3 1 1 0 2 3 0 1 1 1 0 1 3 2 3 1 0 1 1 1 1 2 3 1 0 2 6 7 5 6 5 1 2 0 4 3 4 2 2 5 3 2 1 4 2 6 6 2 1 1 0 4 1 5 7 2 1 1 1 2
27 29 28 28 29 30 31 32 30 27 22 8 5 2 2 1 1 5 7 8 3 7 1 1 1 4 4 1 1 2 2 1 0 1 2 1 3 0 1 2 2 0 2 1 1 2 2 1 3 0 1 1 4 8 7 5 2 2 3 2 2 2 2 8 3 2 4 2 1 2 3 5 3 2 2 0 2 4 2 5 1 5 5 5 7 5 2
27 28 29 28 28 32 32 31 29 28 23 12 1 2 1 1 1 1 6 11 10 5 0 1 1 2 2 2 3 4 1 3 2 2 1 1 1 0 0 0 3 1 2 2 1 5 2 1 3 1 2 1 3 8 9 7 4 3 2 4 4 6 0 3 6 7 5 4 4 3 1 1 0 0 2 2 4 3 0 2 1 3 2 3 3 2 4
27 27 28 27 28 31 32 31 30 29 25 14 3 1 3 3 1 6 6 5 6 5 1 1 1 0 2 2 2 2 2 0 5 5 4 2 1 2 2 1 1 3 2 3 5 6 5 4 0 5 3 3 3 3 6 8 3 3 8 5 5 4 2 4 3 6 8 6 4 2 2 2 3 0 3 1 2 1 4 5 4 4 3 2 3 4 3
27 27 28 27 27 30 31 30 30 30 25 16 3 3 3 2 5 2 5 6 7 3 7 9 6 3 2 3 2 4 2 3 2 6 2 4 0 2 7 4 2 3 3 1 3 3 2 6 5 4 2 3 1 6 2 5 12 9 1 6 5 4 6 4 4 8 2 2 1 1 2 3 2 1 1 2 5 2 5 2 1 2 9 3 0 1 4
26 27 28 27 27 30 30 30 30 31 25 20 3 4 4 5 1 1 1 2 4 7 9 10 10 12 6 3 2 3 4 6 2 5 2 1 3 1 4 10 6 1 0 2 3 6 3 4 3 5 2 3 6 3 4 5 7 5 1 3 4 4 4 2 6 5 6 6 5 6 6 4 2 3 3 4 5 6 4 1 1 2 2 6 1 3 4
26 27 27 27 27 28 29 30 29 30 28 18 4 6 4 4 0 0 2 2 1 3 4 7 8 12 11 1 7 8 8 7 3 1 3 4 6 4 3 5 9 7 2 3 3 3 2 3 2 2 4 3 4 4 5 4 10 8 3 5 1 6 2 2 5 4 7 8 7 9 9 5 5 7 5 3 9 7 6 4 3 0 2 5 9 10 6
26 27 28 27 27 27 28 30 29 29 26 10 10 7 3 4 3 3 5 3 3 5 2 4 9 10 12 4 10 6 7 7 6 7 6 2 3 3 7 4 5 8 9 5 5 2 3 3 2 1 1 3 5 1 2 4 6 7 3 1 2 4 1 5 6 5 1 6 3 4 3 3 3 3 5 5 6 10 6 3 3 7 6 3 9 11 7
26 26 26 27 26 26 28 29 29 27 22 8 7 2 4 2 1 0 1 5 5 3 3 3 6 6 10 9 9 7 12 5 4 7 6 7 3 5 2 1 2 5 8 9 5 1 1 2 1 1 0 1 1 2 2 2 4 7 5 3 3 5 3 1 3 5 2 3 2 4 5 4 4 1 2 3 4 6 1 2 1 1 5 4 5 7 3
25 26 26 26 25 26 26 27 27 24 16 5 2 5 3 1 1 2 1 4 5 4 4 1 1 6 3 4 6 5 9 7 4 3 6 7 7 4 3 2 3 4 8 7 5 5 3 5 6 3 4 3 2 1 2 1 1 4 3 0 2 1 8 5 4 6 3 1 2 8 7 6 2 1 2 2 3 6 5 3 4 3 1 4 6 5 2
24 25 26 25 25 25 25 27 26 22 11 7 5 3 4 3 3 4 3 6 6 6 2 6 5 1 1 4 3 7 10 12 10 4 1 5 9 7 4 6 3 2 4 3 4 4 7 5 3 2 2 3 1 0 1 3 1 1 1 2 1 2 5 3 1 4 3 2 2 0 2 2 4 2 3 1 2 3 8 3 3 5 2 1 2 4 3
23 24 24 25 24 24 24 26 26 24 13 1 3 1 2 0 2 1 3 6 1 5 5 4 3 2 3 4 1 3 7 9 7 4 3 2 3 5 8 8 4 3 3 5 8 8 4 1 0 1 1 3 3 4 7 6 5 3 1 1 2 2 4 2 2 5 4 0 2 3 2 6 2 5 1 2 7 9 14 7 5 5 5 6 9 7 7
23 23 24 24 23 23 24 24 26 25 19 5 3 6 4 0 2 2 5 6 3 6 5 3 3 2 2 4 4 3 3 4 3 4 2 3 5 6 4 2 3 3 6 11 9 4 2 1 2 0 2 4 4 8 9 8 7 6 4 3 2 1 4 3 3 3 3 3 2 3 4 1 2 2 1 1 1 1 5 10 5 5 3 1 4 3 3
22 23 23 23 22 23 23 23 24 25 24 12 4 4 4 2 2 3 1 4 3 2 1 3 5 8 8 7 3 3 2 7 4 1 4 3 2 3 2 1 4 7 7 1 2 2 1 4 1 2 3 6 3 2 1 1 6 9 10 8 2 6 4 3 2 1 4 2 3 1 2 1 1 0 1 2 1 1 2 5 0 2 2 2 3 2 1
22 23 23 22 22 22 22 23 23 25 24 16 1 1 5 6 2 3 2 5 4 1 4 4 6 5 4 3 4 4 5 4 6 5 3 2 1 1 2 5 8 7 2 1 3 5 1 2 1 1 2 2 1 1 3 1 2 5 6 6 5 3 2 2 5 1 6 7 4 1 2 1 6 2 1 1 0 1 3 5 0 2 3 0 3 3 1
22 22 22 22 22 21 22 22 22 23 24 19 4 3 4 4 1 3 3 2 4 5 7 2 2 2 1 2 2 4 2 3 3 3 5 5 3 7 2 5 7 5 3 6 2 3 2 1 2 3 0 0 1 1 0 2 2 4 5 7 7 6 7 5 5 3 4 3 6 4 6 5 4 1 3 2 2 4 3 4 1 0 0 2 2 5 2
21 22 22 23 21 22 22 22 22 23 24 20 6 3 7 7 4 1 2 4 6 3 4 2 1 1 2 4 4 5 3 2 3 2 4 5 5 4 10 9 4 5 7 5 6 4 5 4 2 2 0 0 1 0 1 2 3 6 11 6 10 9 5 3 3 2 0 5 4 3 2 1 0 3 4 4 0 3 3 2 4 2 2 1 2 4 3
20 21 21 22 21 21 22 22 22 23 22 21 7 1 3 5 4 1 5 4 5 3 4 2 3 5 6 1 1 2 1 2 3 1 0 2 2 4 5 7 10 5 4 4 2 4 3 3 3 2 1 1 0 1 1 0 2 1 3 3 3 5 4 6 1 2 3 6 0 3 2 2 2 2 4 6 2 3 4 7 3 0 2 2 1 1 1
20 20 20 21 21 21 21 21 22 23 23 21 8 1 3 5 7 4 7 4 5 4 6 2 1 2 0 1 1 0 0 0 0 2 4 5 2 2 2 3 1 4 7 2 5 3 2 1 0 1 1 3 2 1 1 3 1 1 0 3 4 3 1 1 3 5 1 2 6 3 1 3 1 2 2 3 2 4 6 2 2 2 1 1 1 2 2
19 20 20 20 20 20 21 21 21 22 23 22 9 2 4 4 5 5 3 3 1 3 3 3 2 4 1 4 5 6 3 5 2 5 2 1 4 4 1 3 3 4 6 3 3 0 3 1 1 0 2 0 1 1 3 1 1 1 0 0 2 1 2 1 1 0 2 3 3 2 0 1 4 4 2 4 3 1 2 2 1 1 1 1 1 1 0
19 19 19 19 20 20 20 20 21 21 22 21 12 3 6 4 5 5 2 2 3 4 4 3 1 2 1 2 0 3 4 4 3 3 1 2 2 1 3 1 4 2 2 2 2 2 0 1 1 0 1 1 3 2 2 1 1 1 1 1 2 0 2 0 0 1 2 1 1 1 0 3 5 2 3 1 2 4 1 2 2 3 2 2 3 2 1
18 18 19 19 19 19 19 20 20 20 20 20 12 2 5 7 4 4 1 3 3 2 1 3 1 2 2 1 1 3 1 1 1 2 1 3 4 3 2 1 0 0 0 2 2 1 2 0 0 2 2 2 4 2 2 2 0 3 2 2 2 5 1 1 3 2 1 1 3 2 1 2 5 6 6 4 2 3 2 4 3 3 1 0 1 2 3
18 18 18 18 18 18 18 18 19 19 19 19 11 4 2 7 9 6 1 4 2 1 2 4 1 2 2 1 1 2 2 0 4 2 2 3 2 3 2 2 3 0 0 1 1 3 1 2 1 2 2 1 2 1 3 2 2 1 1 2 4 1 2 2 6 3 4 7 5 3 1 1 3 3 2 6 4 2 3 5 3 2 1 2 1 2 2
17 17 17 18 18 18 18 18 19 18 19 17 9 2 4 3 5 6 5 5 4 2 3 5 5 3 2 4 7 7 3 0 1 0 1 2 2 1 2 1 1 1 1 1 2 1 1 2 0 1 2 1 2 3 2 3 1 0 1 1 2 1 0 1 4 2 3 0 1 1 2 1 1 2 1 1 2 1 1 2 2 2 3 2 1 0 2
17 17 17 16 16 17 17 17 18 18 18 17 11 1 1 3 4 6 3 1 3 3 1 4 1 2 3 4 3 3 1 0 1 3 4 5 6 4 2 0 1 2 2 1 1 4 3 2 1 2 2 1 2 0 1 3 1 1 1 1 1 1 1 7 2 3 3 2 4 2 0 1 1 0 2 3 3 3 3 2 2 3 3 3 2 1 4
17 16 16 16 15 16 17 17 17 17 16 16 8 3 3 2 5 1 6 4 2 2 2 1 2 3 3 3 2 3 4 3 3 4 4 2 2 3 4 1 1 3 3 2 2 3 2 3 2 1 3 1 1 2 0 0 1 0 3 0 2 2 2 1 0 3 1 1 1 1 2 2 2 1 1 1 2 3 3 2 3 3 4 3 3 4 2
16 16 16 15 15 16 16 16 17 16 16 14 4 2 2 1 3 6 3 1 1 1 3 0 4 6 4 3 2 4 2 3 2 4 3 5 4 3 4 3 2 3 5 3 3 4 3 2 3 1 1 0 1 1 1 1 1 1 1 1 1 2 3 1 4 5 1 4 4 5 2 2 4 4 3 0 0 3 2 2 3 4 3 3 4 3 2
15 15 15 15 16 16 16 15 15 15 15 12 4 2 1 3 3 1 1 2 3 2 1 1 2 4 3 1 2 2 3 3 3 2 4 4 5 4 5 3 2 2 2 2 4 4 2 4 2 1 0 1 2 2 1 0 2 3 3 2 0 2 3 3 2 5 1 3 4 5 3 1 3 4 2 1 2 3 3 2 2 1 2 2 3 2 3
15 14 14 15 15 16 15 14 13 14 14 9 1 1 2 1 1 3 3 1 5 4 2 1 2 4 2 2 6 4 3 3 3 2 3 3 4 4 4 3 2 4 3 4 2 2 1 1 1 0 1 1 4 0 2 1 1 1 2 1 0 1 2 2 3 4 1 2 4 6 3 2 2 3 2 1 2 4 3 1 1 2 3 2 2 2 1
15 15 15 16 16 16 16 14 13 12 10 4 2 3 3 0 1 2 3 3 3 3 1 1 2 1 2 2 2 3 2 3 3 2 4 3 3 2 2 3 2 1 2 1 1 1 1 0 1 1 2 1 1 1 2 1 1 2 2 3 3 1 0 1 3 2 0 1 4 5 3 1 0 2 1 1 2 4 5 4 4 3 3 3 3 2 2
16 16 17 17 17 16 15 14 11 9 6 3 3 2 2 2 1 0 3 3 0 2 2 1 1 2 2 0 0 2 5 4 3 3 2 1 1 1 0 2 1 0 1 1 1 0 0 1 0 1 1 1 3 1 3 2 0 2 3 3 3 1 1 0 2 1 1 3 4 3 3 3 2 4 3 2 3 3 2 2 4 4 4 3 3 3 2
18 17 17 17 17 16 14 12 9 5 2 2 2 1 1 1 3 4 4 2 0 2 1 1 1 3 1 3 1 1 1 1 1 2 1 2 1 2 3 3 0 1 2 1 0 1 0 1 0 1 0 1 5 2 3 3 2 3 3 4 3 3 2 1 0 1 2 4 5 4 2 0 2 5 3 4 4 3 5 5 4 3 3 2 1 2 2
18 18 18 17 17 16 14 10 5 2 1 4 5 4 4 6 9 6 3 1 3 1 2 3 1 0 0 1 4 2 1 1 3 6 2 2 1 1 1 3 2 2 3 3 1 0 1 1 0 1 0 1 2 1 2 3 5 5 6 6 4 2 1 1 0 0 2 2 2 2 2 3 3 3 5 6 4 5 4 4 2 1 1 0 2 3 4
18 18 18 17 16 16 12 6 1 2 4 2 2 2 4 5 4 2 2 4 2 0 1 1 0 1 2 4 2 2 2 1 2 2 1 2 0 1 1 2 3 0 3 2 1 1 0 0 1 1 1 2 1 2 1 4 5 5 3 1 1 2 1 0 1 1 1 1 0 0 2 2 3 4 4 4 3 2 2 2 2 1 0 1 2 2 2
18 18 18 15 15 9 3 4 3 2 1 0 0 2 1 9 2 1 2 1 1 1 2 1 1 1 1 3 2 3 1 0 1 0 1 3 2 1 0 1 2 2 2 1 2 1 0 1 4 1 2 2 1 1 3 5 5 2 1 2 2 4 2 1 4 3 0 2 2 3 4 6 7 4 5 3 4 3 2 1 1 1 2 3 2 3 2
19 17 16 14 6 1 1 2 4 2 2 1 2 4 10 4 3 2 2 2 1 2 2 0 1 0 2 0 0 1 0 0 0 1 1 1 3 2 2 2 0 1 0 1 1 1 0 0 1 1 1 1 4 4 6 5 5 5 6 7 7 9 6 7 3 3 3 3 4 3 4 3 5 5 3 3 1 0 1 1 1 2 1 2 3 3 3
18 17 12 3 2 1 2 0 1 2 1 3 10 12 7 3 0 1 2 1 1 1 1 2 1 3 4 2 1 4 2 1 3 2 3 2 1 2 2 1 0 2 1 1 1 0 2 1 2 1 1 3 3 6 6 4 5 5 5 6 7 5 1 2 3 5 4 4 5 2 2 3 2 2 4 3 3 1 1 1 3 2 2 2 3 3 4
15 8 4 2 1 1 0 1 0 4 10 11 7 1 1 3 0 1 2 2 2 2 3 2 1 1 0 1 1 2 1 1 2 1 2 0 1 1 0 1 1 0 1 1 2 1 1 3 0 1 3 6 5 5 6 5 6 4 4 4 6 5 4 3 5 5 4 1 1 0 1 1 3 4 4 3 3 3 4 3 3 3 2 3 4 4 4
6 3 4 3 2 0 1 1 4 13 7 2 1 0 0 1 1 1 0 0 1 1 1 1 2 1 3 1 4 2 0 1 1 2 1 1 2 3 1 1 2 1 1 2 2 1 1 1 2 2 3 4 4 2 2 4 3 5 5 4 4 5 5 4 5 7 7 6 6 6 7 6 6 6 4 3 3 3 2 2 3 3 3 4 4 4 4
5 6 2 2 1 2 3 5 10 5 1 1 1 1 0 1 1 1 0 1 1 1 0 1 2 3 4 4 2 2 1 1 1 2 1 2 0 1 1 1 1 1 1 0 4 3 1 1 1 1 4 3 4 4 1 2 3 3 3 3 3 4 4 6 5 3 4 4 3 4 5 5 5 6 5 4 4 4 4 3 4 4 3 4 4 3 4
2 1 1 0 3 2 4 6 4 1 1 1 1 1 1 1 0 0 0 1 0 1 1 0 0 0 0 1 1 1 2 2 1 2 2 0 2 2 1 0 0 1 1 1 3 1 1 1 0 1 4 3 5 3 2 1 1 1 1 2 3 4 4 4 4 4 3 2 2 3 2 3 4 4 4 5 5 5 5 4 4 4 4 4 5 5 4
3 3 2 1 3 4 5 1 1 1 1 0 2 0 0 1 0 1 0 1 0 1 1 1 1 0 2 2 2 3 0 0 2 1 1 0 0 1 1 1 2 1 1 2 1 2 2 0 1 3 5 7 5 3 3 4 2 2 2 2 3 4 4 4 4 4 4 4 3 3 3 4 4 3 4 4 5 5 4 4 5 4 5 5 4 3 4
7 4 2 2 1 1 0 1 1 1 1 2 2 1 2 2 0 0 2 1 1 1 2 0 1 1 0 1 0 0 0 0 0 1 1 1 1 2 1 1 1 0 2 1 1 1 1 1 1 7 6 7 4 3 4 4 2 2 1 2 4 4 5 5 4 4 4 4 4 5 4 4 4 4 3 3 2 1 3 3 4 4 4 4 4 4 4
2 0 1 1 0 1 1 1 1 1 1 1 2 1 1 1 2 2 1 2 2 2 1 1 2 1 2 1 1 1 1 1 3 1 0 0 1 0 0 0 2 3 0 1 1 1 3 2 6 5 5 5 5 3 3 4 4 2 1 1 1 1 1 1 1 1 1 1 1 1 1 3 3 1 2 2 3 4 5 4 4 4 4 2 3 4 4
0 2 2 1 1 1 1 2 2 2 1 1 1 1 2 1 2 2 1 2 1 4 4 1 2 1 1 1 1 1 1 1 1 1 1 0 0 0 1 2 2 2 1 2 1 2 1 2 4 3 5 4 6 3 3 4 4 5 4 2 3 3 2 3 3 3 3 4 4 3 3 4 2 3 3 4 3 3 3 5 5 3 3 2 3 3 3
3 1 1 3 3 2 1 0 0 1 1 2 1 4 2 3 2 3 5 0 2 5 6 5 4 2 1 1 1 1 0 1 0 1 1 1 1 2 2 0 1 1 1 1 0 2 4 5 4 6 5 6 5 4 3 4 3 2 3 5 6 5 4 4 4 4 4 4 3 4 4 4 4 4 4 4 3 3 4 5 4 4 3 1 3 3 2
1 1 2 1 2 1 0 1 0 1 1 2 3 4 1 3 4 5 3 0 2 4 4 4 3 2 1 1 0 1 1 0 0 1 1 0 1 1 1 1 1 0 1 1 2 4 4 6 6 6 6 5 5 4 3 3 4 4 5 3 3 5 4 4 4 4 4 3 3 4 4 4 4 4 2 2 4 4 4 4 5 4 4 5 4 2 1
1 1 0 1 2 0 0 0 1 2 1 1 1 2 1 0 2 5 3 2 4 1 3 2 2 1 1 1 1 1 1 0 0 2 1 1 1 1 1 1 1 1 2 2 4 5 4 4 3 5 5 4 4 5 3 4 4 5 5 5 5 4 5 5 5 5 4 5 5 5 5 4 4 4 4 5 4 5 4 4 5 3 3 3 1 2 2
1 1 0 1 1 1 1 1 2 2 1 2 0 0 0 1 3 6 6 1 1 3 1 1 1 1 2 0 1 0 1 0 1 2 1 1 1 2 1 1 0 2 4 5 4 4 4 5 4 4 6 6 4 4 5 4 6 7 8 8 8 9 7 7 7 6 4 4 4 5 5 5 4 4 4 2 3 6 5 3 4 3 3 4 4 3 3
1 1 1 1 1 2 1 0 1 3 3 2 0 1 1 1 3 6 1 2 2 2 2 0 0 1 1 0 1 0 1 1 2 0 1 1 2 0 1 1 3 4 1 2 3 5 6 5 3 4 4 4 5 4 5 5 5 6 6 6 5 4 5 6 6 5 5 5 6 7 6 4 4 5 5 7 6 3 2 2 2 3 3 3 3 3 4
0 0 2 2 3 2 3 1 1 2 3 4 2 3 2 2 2 2 1 1 3 3 2 0 1 0 0 1 1 0 2 1 1 2 3 3 2 3 3 4 6 6 5 4 5 5 4 3 2 4 5 5 5 4 5 5 5 7 6 4 4 5 4 4 5 5 5 6 5 5 5 6 7 7 6 3 2 3 4 3 3 3 4 3 3 4 4
0 1 2 3 2 4 2 0 0 5 6 5 3 4 2 2 3 3 1 1 1 0 3 1 1 0 1 2 3 2 0 1 1 1 1 3 2 3 4 6 6 5 5 5 5 5 5 4 4 4 5 6 7 6 3 4 5 5 5 6 5 5 6 5 6 6 6 4 5 6 7 6 5 4 3 3 3 2 4 6 4 4 4 4 4 4 4
Wind_Direction
356 353 351 348 345 346 347 346 345 348 349 2 354 334 13 45 272 263 338 341 107 57 57 304 40 145 233 295 300 273 350 178 229 104 316 289 191 279 180 221 191 248 188 199 88 113 141 154 190 181 156 103 237 276 327 285 48 73 110 39 295 92 75 69 340 328 305 310 327 6 5 39 49 27 61 64 50 169 167 168 181 134 174 71 26 87 240
356 354 352 348 346 346 348 347 345 345 356 338 303 47 87 308 285 326 344 3 87 69 88 338 285 311 317 32 268 238 211 175 338 144 13 57 347 311 281 332 64 157 70 81 80 318 132 60 61 15 131 77 337 5 353 295 74 54 207 132 246 94 304 110 97 19 335 348 349 356 332 51 78 88 353 355 75 51 139 107 41 99 212 165 128 190 261
357 355 354 350 348 349 349 348 344 345 347 355 152 39 243 316 282 285 314 5 40 67 274 15 291 316 339 317 359 349 354 14 290 160 85 16 40 7 308 174 307 39 26 87 111 41 85 119 28 85 350 78 326 1 15 348 68 8 242 119 131 77 87 78 134 153 160 179 199 230 234 160 293 106 34 45 96 128 74 134 36 123 238 111 135 224 255
359 357 355 352 350 352 352 349 346 344 346 358 98 212 51 27 48 320 339 19 31 54 309 332 245 57 2 38 334 52 332 341 25 75 78 68 50 75 294 335 57 53 44 41 37 24 12 83 9 42 350 325 1 4 4 44 46 60 56 29 70 120 86 77 143 161 182 195 208 251 104 56 78 259 52 359 59 69 100 95 89 189 184 177 236 169 148
360 358 357 355 353 354 354 353 348 347 343 356 123 23 100 123 53 342 338 330 29 33 18 12 16 360 283 68 329 355 322 263 21 32 102 10 79 38 47 356 36 340 55 38 65 13 353 17 75 10 321 276 275 304 55 49 12 333 55 353 83 74 62 359 79 47 49 235 129 33 81 113 17 62 29 50 45 37 80 76 246 161 111 252 273 225 109
1 0 359 357 355 356 357 356 352 349 344 344 82 38 0 60 297 123 244 85 338 6 7 354 5 14 36 46 354 13 22 32 49 325 45 156 41 96 357 28 35 299 225 105 66 341 33 32 23 322 350 327 335 10 4 78 357 13 24 339 104 128 102 314 76 3 32 34 51 60 60 48 82 39 353 33 33 44 74 103 127 90 118 198 214 95 84
2 2 0 359 357 357 360 359 356 352 346 344 67 70 339 106 253 207 337 79 360 23 261 312 9 27 13 186 13 26 21 35 11 352 319 27 359 51 96 3 0 17 30 100 100 9 76 11 341 54 324 17 334 23 332 349 19 25 48 18 67 92 67 116 87 52 13 8 39 54 49 16 32 11 11 18 74 66 79 70 352 213 128 142 118 88 77
3 3 1 1 358 357 2 3 0 355 346 335 65 49 52 12 24 338 358 73 60 359 325 3 20 34 357 35 360 14 5 32 12 25 27 25 351 16 82 45 22 33 43 53 83 38 95 123 63 304 78 326 37 45 111 289 331 27 35 30 5 96 224 158 120 84 312 316 348 52 101 110 76 8 27 46 84 75 48 70 32 71 62 84 103 87 64
4 3 1 1 359 358 2 7 5 1 351 37 45 54 47 258 172 207 62 34 347 339 25 15 47 41 359 25 352 14 359 10 17 74 45 57 17 357 35 337 343 29 52 59 78 301 237 237 266 235 103 66 299 54 281 47 329 353 2 28 326 68 153 48 93 102 304 297 60 102 80 76 99 41 18 20 62 90 351 56 307 105 157 168 98 86 118
3 3 2 1 360 359 1 6 9 7 359 90 32 33 319 20 302 60 109 72 341 27 325 17 57 47 338 349 332 355 352 8 13 55 10 32 48 14 302 279 78 16 34 33 352 317 235 248 245 228 236 251 271 272 252 349 347 335 2 269 51 45 137 149 124 107 203 126 128 133 130 101 72 253 351 28 66 117 117 64 44 33 91 118 141 183 210
3 3 2 1 360 359 359 4 9 13 19 39 34 3 348 12 331 339 54 83 351 9 344 31 55 184 253 325 325 351 17 18 21 82 350 351 6 360 27 41 80 83 45 334 309 269 265 246 244 174 223 201 222 22 341 8 237 214 335 21 33 55 104 130 142 120 190 94 153 293 82 153 221 268 277 190 158 195 102 51 3 351 49 139 172 132 130
3 3 2 1 359 358 358 2 8 13 25 67 150 39 341 214 96 87 77 83 2 331 50 54 7 360 11 348 110 8 6 12 4 349 88 10 324 347 26 29 65 35 308 324 331 312 253 226 42 74 97 29 77 68 54 50 31 48 355 129 79 68 68 107 144 96 164 163 61 71 200 233 300 321 16 113 98 102 103 103 65 24 26 75 90 89 94
2 3 2 1 359 358 358 358 4 8 13 21 68 27 320 54 142 108 109 104 44 351 18 22 346 351 6 12 24 355 360 313 346 344 75 45 357 16 26 46 7 271 331 317 333 11 49 311 329 98 308 353 20 68 55 50 20 23 64 73 116 131 107 174 45 105 71 72 90 142 241 263 302 301 351 70 125 95 75 63 18 27 20 12 87 109 121
3 4 3 2 1 358 356 358 360 5 8 12 35 12 329 11 53 50 78 96 30 304 236 321 351 4 5 14 359 318 322 12 332 9 38 356 21 354 311 19 300 284 299 319 40 55 9 35 34 22 337 6 6 42 303 65 51 39 14 4 7 134 96 87 99 8 153 164 111 209 1 358 133 15 30 39 60 18 100 136 40 354 332 50 116 81 49
6 6 7 5 4 359 357 356 358 3 5 6 85 310 16 22 79 125 191 85 135 32 54 42 310 313 330 344 4 15 36 341 17 346 296 282 24 300 269 314 318 319 302 107 11 38 110 101 35 77 339 62 144 231 346 23 327 54 37 18 45 34 178 232 131 241 119 127 77 17 26 239 244 228 269 263 241 218 177 105 32 333 337 281 135 96 38
8 9 8 8 5 2 358 356 356 0 4 2 61 3 38 7 58 99 112 136 122 33 334 320 238 251 292 327 340 57 351 5 337 303 349 350 318 332 317 333 323 336 33 66 72 84 28 100 199 86 140 212 259 56 269 3 354 321 27 29 43 32 75 104 143 153 81 70 133 191 167 243 207 227 279 293 274 176 145 69 192 260 287 355 104 105 58
8 8 8 8 6 3 359 356 356 360 1 8 350 357 26 3 19 51 70 37 71 126 238 283 121 127 86 348 9 16 11 28 339 30 351 344 317 296 306 337 307 32 25 77 11 56 33 41 62 134 124 259 64 186 333 51 8 340 336 6 25 36 4 21 69 70 136 143 117 203 194 133 232 248 278 290 310 162 68 101 261 233 344 13 83 101 98
5 5 7 7 5 2 360 357 356 358 1 1 14 23 337 355 7 115 58 93 102 43 337 340 22 29 34 223 23 289 55 11 24 35 98 287 332 359 326 349 352 338 61 84 9 66 59 64 62 68 86 349 267 46 94 61 47 332 326 347 2 360 348 44 140 126 67 90 169 19 325 282 260 299 302 319 182 111 126 202 223 224 27 29 104 96 115
5 5 5 5 4 2 360 358 357 359 1 3 355 65 347 7 359 68 115 72 76 78 300 297 164 86 195 69 110 144 103 122 216 83 329 6 15 300 257 256 47 350 3 100 56 66 89 323 11 77 100 324 25 124 329 45 282 318 30 26 4 7 65 331 60 40 72 157 110 181 209 238 8 286 308 291 92 167 215 234 216 135 86 36 75 79 12
3 4 4 3 3 1 1 359 358 359 1 3 20 87 269 333 11 30 72 100 90 82 319 348 16 29 329 75 33 32 2 22 35 101 96 360 289 8 32 6 329 56 356 49 46 255 95 50 249 15 29 328 353 142 56 35 48 40 355 300 114 281 86 359 90 200 55 44 74 57 155 280 8 293 337 14 111 227 175 149 46 150 105 67 27 118 15
2 1 1 2 1 0 359 359 358 0 1 2 11 33 348 337 19 17 74 130 113 67 341 309 12 9 55 42 317 141 111 67 22 34 272 229 266 82 86 212 268 11 358 62 79 343 91 343 350 115 221 110 281 52 154 170 351 339 81 116 123 183 88 81 324 187 143 79 109 191 211 270 311 115 143 293 89 128 108 91 56 25 34 16 354 350 314
359 359 357 358 360 359 358 358 358 360 1 2 5 38 24 329 350 6 350 93 96 117 188 268 236 247 243 215 187 174 103 106 283 162 120 17 355 83 157 106 290 129 320 120 31 12 6 207 37 53 27 322 14 100 131 70 60 288 331 58 31 328 147 184 157 339 109 183 159 182 218 297 344 50 87 87 74 101 147 105 139 123 282 181 73 302 343
356 356 355 355 355 356 355 357 358 1 359 1 13 72 25 324 341 348 71 48 349 2 352 4 355 328 357 328 232 195 214 172 120 71 128 108 15 14 51 38 351 250 358 100 121 146 188 110 85 153 81 50 132 65 19 124 181 356 51 323 143 37 105 50 79 77 92 51 69 110 205 6 48 42 76 126 131 190 148 153 160 221 72 138 141 350 313
351 353 351 351 350 351 352 353 357 359 359 359 16 54 338 335 318 352 14 67 96 86 344 3 57 345 281 303 314 338 2 353 24 40 164 124 106 323 331 264 210 25 12 294 181 101 203 105 184 128 102 251 81 61 100 26 11 188 70 360 335 268 208 64 104 167 61 207 186 140 169 106 126 121 45 23 63 79 104 97 79 108 123 94 31 92 35
346 348 347 347 347 346 348 349 354 356 358 360 358 10 212 1 0 15 73 47 2 83 129 313 355 233 275 269 259 301 283 65 82 77 50 70 116 131 140 18 166 70 344 321 86 49 37 87 20 47 91 274 107 355 245 109 316 112 76 280 31 348 105 73 93 65 104 212 179 208 313 297 316 130 124 114 64 57 43 84 121 121 79 76 26 58 52
342 343 342 342 342 342 342 345 349 352 355 359 25 49 64 16 313 42 88 79 106 108 88 329 283 313 325 18 38 283 308 26 37 57 50 100 140 143 157 217 25 32 114 91 75 96 99 50 71 106 102 319 85 128 137 175 173 124 122 200 207 235 22 149 146 87 16 31 45 60 44 349 319 325 274 208 182 133 105 75 97 105 91 80 77 81 122
339 340 338 338 336 336 338 339 346 348 352 359 25 63 89 332 350 43 62 331 98 334 35 257 279 300 2 342 275 338 360 18 20 69 39 16 58 55 71 78 73 7 50 23 39 117 64 102 92 39 132 286 82 108 154 36 70 75 44 293 5 54 63 201 60 90 139 177 201 147 127 267 253 259 246 254 205 136 109 67 58 42 52 49 68 24 18
338 336 334 332 330 330 332 334 340 345 345 356 30 68 112 77 342 7 114 112 89 170 166 257 327 285 312 243 309 353 326 48 57 57 54 25 32 52 73 80 78 49 11 59 10 17 27 54 359 233 160 287 56 357 10 159 60 35 14 322 309 95 184 141 134 157 202 242 200 174 145 173 222 194 205 202 150 123 127 119 105 57 65 120 90 39 347
337 334 330 327 326 325 326 328 335 341 343 352 39 43 1 349 328 10 46 106 101 96 96 238 294 12 68 249 333 352 344 61 74 81 83 57 47 45 69 67 108 143 95 76 109 109 114 246 182 102 7 200 97 289 37 9 49 188 235 264 275 264 146 142 178 156 251 210 190 173 138 165 184 228 216 149 138 119 112 89 123 143 155 163 153 181 198
334 332 330 328 324 323 320 322 330 338 344 19 56 50 41 322 328 44 8 49 110 116 84 61 76 223 313 357 315 310 314 355 42 49 40 35 37 42 125 104 70 61 96 135 145 53 239 166 296 284 287 325 122 172 75 183 110 250 270 282 263 317 228 236 159 98 230 190 164 178 163 155 221 145 120 94 136 132 136 167 162 175 213 185 180 231 232
333 329 326 322 319 317 314 315 321 335 4 48 77 55 39 40 321 236 9 38 87 104 124 109 228 284 360 274 193 337 338 339 356 15 13 94 120 118 357 97 64 106 27 354 48 137 127 10 45 341 346 77 114 97 163 134 172 308 268 236 244 273 283 358 215 232 191 104 95 108 88 84 90 69 35 70 129 143 115 179 200 186 191 188 213 198 224
331 327 322 320 316 313 310 308 311 340 53 46 85 148 175 193 234 278 336 357 108 53 57 40 341 11 289 315 292 282 340 3 40 5 1 23 8 11 16 50 136 14 122 138 197 82 358 222 113 294 59 359 76 97 80 84 151 243 248 244 248 228 244 298 32 83 75 127 101 59 55 64 164 153 190 190 166 172 166 187 196 203 191 192 233 223 231
328 322 319 317 314 311 309 305 301 256 203 227 249 270 264 282 280 274 282 334 46 101 123 87 133 222 15 259 317 337 11 19 5 19 349 333 356 11 17 0 31 64 359 85 339 99 199 136 276 69 284 36 97 111 108 164 214 232 217 209 210 204 215 246 284 86 150 186 135 160 221 218 217 209 160 158 170 178 176 174 195 133 79 45 346 340 349
322 318 317 316 314 315 311 304 25 137 48 44 60 30 347 359 12 97 82 75 101 132 74 108 56 20 262 305 72 283 18 68 289 28 358 310 283 65 292 26 350 112 323 68 262 81 332 74 197 225 324 25 46 83 288 260 241 256 274 250 124 99 64 318 286 180 214 209 195 154 174 163 122 116 120 150 187 183 147 153 141 91 352 357 324 308 298
319 317 314 316 319 325 36 92 69 51 102 356 207 247 276 342 351 358 69 102 74 345 23 14 107 70 351 360 45 271 306 67 338 305 87 282 24 78 313 53 320 59 294 92 40 77 46 245 176 86 232 323 45 217 246 250 274 261 156 145 145 105 64 297 271 223 293 30 81 95 118 126 122 138 166 181 189 182 134 69 26 84 11 323 307 305 322
319 317 316 316 321 54 50 35 55 52 28 10 264 295 327 342 70 53 94 90 120 153 89 253 67 199 146 140 336 285 302 49 303 311 228 286 348 14 92 111 15 270 235 70 213 3 207 268 82 286 284 63 226 190 228 206 218 213 190 192 186 172 188 188 190 110 73 66 69 92 112 132 146 174 183 211 179 114 146 122 352 68 118 295 292 290 304
324 320 316 353 54 42 31 181 311 84 202 245 275 299 318 105 359 62 9 27 357 93 138 157 65 232 162 226 252 277 53 341 334 5 340 27 276 291 39 43 208 296 29 1 4 67 264 52 101 113 170 179 245 228 225 208 198 185 200 208 197 201 117 75 133 119 87 58 55 63 139 165 177 185 182 196 189 191 132 238 222 213 257 255 275 296 277
326 343 48 37 40 52 3 338 291 295 313 296 304 34 359 24 87 335 1 35 286 42 343 65 193 241 351 90 245 251 69 294 53 36 311 241 34 314 20 105 233 207 326 270 255 184 62 40 32 160 261 251 253 260 249 229 229 229 211 186 187 186 160 137 132 114 110 83 328 274 74 164 196 216 191 217 202 208 222 228 239 225 224 245 259 265 298
3 27 42 28 89 127 194 253 317 325 308 267 37 86 303 3 64 29 342 284 17 29 298 105 245 171 130 184 277 290 161 132 27 36 43 278 96 311 15 50 300 61 325 15 304 30 308 333 352 24 286 296 331 281 259 233 237 211 194 187 163 160 154 170 170 154 169 186 196 194 175 182 198 224 219 207 230 242 242 248 255 246 236 251 267 275 279
23 31 21 7 71 249 275 287 325 326 43 75 331 105 161 323 88 316 297 47 343 289 52 293 215 169 187 188 205 304 326 41 342 290 208 307 64 148 265 94 270 81 284 40 251 24 108 278 286 45 294 285 259 266 292 216 198 204 151 142 140 156 171 167 195 204 176 206 196 198 196 195 187 183 186 198 201 226 259 254 243 246 242 248 253 266 269
35 53 18 20 262 305 299 311 341 53 64 48 10 4 63 10 355 187 60 64 146 241 198 181 355 7 349 71 123 226 287 90 133 131 123 248 253 85 47 252 248 64 307 262 278 65 71 77 359 193 238 237 246 277 294 206 184 189 176 169 162 165 174 188 201 186 174 207 222 209 196 174 175 187 187 186 188 206 222 230 242 244 248 257 259 252 256
200 192 214 234 283 286 310 345 61 43 12 92 114 308 278 230 261 13 127 94 328 277 316 157 324 232 278 185 207 150 354 167 124 101 90 329 302 115 223 323 6 92 258 237 112 55 76 217 315 294 258 257 260 278 249 219 223 190 191 157 164 165 171 185 199 213 196 198 195 176 169 169 180 184 184 182 201 214 228 240 255 260 248 253 255 271 273
300 275 198 276 318 317 114 41 317 95 93 2 37 33 345 52 359 78 299 284 297 104 275 207 233 194 284 72 331 217 200 230 278 318 75 236 282 53 84 13 51 300 238 331 68 53 39 222 234 250 256 274 280 271 243 234 219 206 216 188 184 185 179 183 194 208 205 188 182 175 173 179 209 210 188 181 195 257 255 232 239 256 261 257 267 271 277
163 95 97 340 21 288 77 43 302 45 14 60 89 106 321 19 315 3 19 292 305 320 307 6 300 83 278 296 149 328 358 4 59 75 35 352 85 299 49 234 223 242 216 38 35 211 234 224 212 235 270 295 297 259 223 225 209 193 226 219 195 170 182 166 115 113 158 150 144 139 143 196 208 155 136 174 186 219 252 270 257 243 259 266 268 269 268
87 360 30 18 25 276 62 311 327 104 92 292 116 149 150 145 244 181 205 246 133 280 314 8 190 123 250 273 48 22 108 227 310 99 251 347 12 46 111 257 252 26 58 261 332 325 347 285 273 273 272 276 281 286 227 208 200 188 182 163 192 198 173 180 197 187 187 183 195 167 190 213 205 223 216 227 228 217 226 257 270 277 258 236 260 289 286
57 110 39 61 353 325 100 172 342 42 308 149 166 196 171 241 190 235 252 176 287 317 342 314 325 334 272 251 146 220 356 92 32 232 167 74 101 271 242 214 92 45 348 45 17 236 222 240 265 271 259 258 270 283 251 225 203 180 140 181 210 201 209 199 203 193 201 199 195 180 208 190 198 208 237 241 234 235 229 243 250 250 247 227 248 246 271
42 8 84 110 97 276 94 108 267 189 180 198 219 175 175 211 209 224 260 201 257 252 272 241 216 221 233 294 40 346 29 53 177 258 84 48 202 259 24 91 272 188 159 271 252 254 268 256 245 249 265 277 290 285 257 228 200 195 211 207 182 204 201 207 204 203 213 195 189 200 216 214 216 215 222 290 273 245 247 248 258 235 205 217 226 211 208
60 251 84 86 244 209 86 250 223 289 295 186 252 215 258 292 352 325 281 220 238 293 289 332 336 335 313 301 85 204 247 349 324 295 180 192 49 42 9 25 295 250 186 172 232 221 236 254 248 266 266 252 263 285 262 218 217 212 207 209 210 209 205 205 211 221 192 189 201 209 216 220 219 210 205 226 256 278 264 258 260 245 216 219 179 175 162
144 107 104 200 199 173 224 249 41 353 289 320 260 342 225 330 281 267 276 268 343 321 259 176 210 119 271 208 94 29 281 191 129 241 71 38 156 222 162 226 224 300 259 187 226 220 227 248 255 265 285 295 279 250 249 231 217 206 205 205 208 209 203 204 214 213 196 195 199 204 219 222 211 215 230 233 255 272 263 247 252 245 211 200 196 180 172
54 343 22 65 356 313 233 64 50 305 311 328 45 266 195 192 260 279 258 334 306 334 347 3 149 136 250 163 278 343 252 241 186 359 64 227 209 188 77 289 224 197 253 223 223 248 245 253 276 297 283 278 280 263 255 246 224 230 227 221 220 205 209 210 220 215 207 204 206 208 210 202 213 216 215 223 226 244 290 287 240 244 236 207 189 182 181
23 136 233 184 174 222 154 188 187 224 286 272 259 258 182 227 222 265 247 81 14 29 36 230 257 111 75 26 65 326 254 149 99 193 167 206 191 138 186 218 239 212 228 222 214 216 225 232 213 263 298 295 283 262 242 245 229 230 233 232 222 215 220 217 222 218 221 224 217 204 209 215 216 212 220 209 236 271 288 287 239 226 233 217 192 195 190
118 330 269 279 243 225 207 108 195 221 235 236 232 247 163 248 247 244 275 58 55 71 263 244 98 91 90 202 225 208 3 35 216 43 334 268 166 165 211 201 231 223 223 243 259 243 232 230 206 217 236 253 267 273 244 227 230 233 230 230 222 215 219 216 214 216 217 218 211 215 228 229 217 199 177 186 210 226 247 262 251 213 219 219 213 206 209